| time (UTC) | temp C | wind direction | speed KPH | gust KPH | rain 1hr cm | rain 24hr cm | rain mn cm | humidity % | barometer mb |
| 20260510153048 | 20 | 333 | 1.6 | 6.4 | 0.00 | 0.08 | 0.00 | 73 | 1013.3 |
| 20260510151553 | 20 | 0 | 1.6 | 6.4 | 0.00 | 0.08 | 0.00 | 77 | 1013.4 |
| 20260510150046 | 18 | 283 | 3.2 | 8.0 | 0.00 | 0.08 | 0.00 | 76 | 1013.2 |
| 20260510144603 | 18 | 255 | 0.0 | 6.4 | 0.00 | 0.10 | 0.00 | 78 | 1013.4 |
| 20260510143101 | 17 | 223 | 1.6 | 9.7 | 0.00 | 0.10 | 0.00 | 84 | 1013.4 |
| 20260510141556 | 16 | 237 | 1.6 | 6.4 | 0.00 | 0.10 | 0.00 | 87 | 1013.3 |
| 20260510140045 | 15 | 0 | 0.0 | 6.4 | 0.00 | 0.10 | 0.00 | 90 | 1013.3 |
| 20260510134552 | 15 | 218 | 0.0 | 4.8 | 0.00 | 0.10 | 0.00 | 93 | 1013.2 |
| 20260510133052 | 13 | 222 | 0.0 | 4.8 | 0.00 | 0.10 | 0.00 | 95 | 1013.1 |
| 20260510131547 | 12 | 0 | 0.0 | 4.8 | 0.00 | 0.10 | 0.00 | 96 | 1013.2 |
| 20260510130054 | 12 | 0 | 0.0 | 3.2 | 0.00 | 0.10 | 0.00 | 96 | 1013.3 |
| 20260510124544 | 12 | 228 | 1.6 | 3.2 | 0.00 | 0.10 | 0.00 | 97 | 1013.3 |
| 20260510123046 | 11 | 0 | 0.0 | 3.2 | 0.00 | 0.10 | 0.00 | 97 | 1013.1 |
| 20260510121555 | 11 | 0 | 0.0 | 3.2 | 0.00 | 0.10 | 0.00 | 97 | 1013.0 |
| 20260510120046 | 11 | 229 | 0.0 | 1.6 | 0.00 | 0.10 | 0.00 | 97 | 1012.5 |
| 20260510114545 | 11 | 0 | 0.0 | 1.6 | 0.00 | 0.10 | 0.00 | 97 | 1012.6 |
| 20260510113052 | 11 | 0 | 0.0 | 1.6 | 0.00 | 0.10 | 0.00 | 97 | 1012.5 |
| 20260510111542 | 10 | 0 | 0.0 | 1.6 | 0.00 | 0.10 | 0.00 | 97 | 1012.4 |
| 20260510110046 | 10 | 0 | 0.0 | 1.6 | 0.00 | 0.10 | 0.00 | 97 | 1012.2 |
| 20260510104552 | 10 | 0 | 0.0 | 0.0 | 0.00 | 0.10 | 0.00 | 97 | 1012.0 |
| 20260510103052 | 10 | 0 | 0.0 | 0.0 | 0.00 | 0.10 | 0.00 | 97 | 1011.9 |
| 20260510101553 | 10 | 0 | 0.0 | 0.0 | 0.00 | 0.10 | 0.00 | 97 | 1011.7 |
| 20260510100043 | 10 | 0 | 0.0 | 0.0 | 0.00 | 0.10 | 0.00 | 97 | 1011.5 |
| 20260510094540 | 10 | 0 | 0.0 | 0.0 | 0.00 | 0.10 | 0.00 | 97 | 1011.6 |
| 20260510093042 | 10 | 0 | 0.0 | 0.0 | 0.00 | 0.10 | 0.00 | 97 | 1011.6 |
| 20260510091548 | 10 | 0 | 0.0 | 0.0 | 0.00 | 0.10 | 0.00 | 97 | 1011.5 |
| 20260510090045 | 10 | 0 | 0.0 | 0.0 | 0.00 | 0.10 | 0.00 | 97 | 1011.4 |
| 20260510084543 | 10 | 0 | 0.0 | 1.6 | 0.00 | 0.10 | 0.00 | 97 | 1011.5 |
| 20260510083042 | 10 | 0 | 0.0 | 0.0 | 0.00 | 0.10 | 0.00 | 97 | 1011.6 |
| 20260510081539 | 10 | 0 | 0.0 | 1.6 | 0.00 | 0.10 | 0.00 | 97 | 1011.6 |
| 20260510080055 | 10 | 0 | 0.0 | 0.0 | 0.00 | 0.10 | 0.00 | 97 | 1011.9 |
| 20260510074556 | 10 | 0 | 0.0 | 1.6 | 0.00 | 0.10 | 0.00 | 97 | 1011.9 |
| 20260510073103 | 10 | 0 | 0.0 | 1.6 | 0.00 | 0.10 | 0.00 | 97 | 1012.0 |
| 20260510071541 | 10 | 0 | 0.0 | 3.2 | 0.00 | 0.10 | 0.00 | 97 | 1011.9 |
| 20260510070046 | 10 | 0 | 0.0 | 0.0 | 0.00 | 0.10 | 0.00 | 97 | 1011.3 |
| 20260510064607 | 10 | 0 | 0.0 | 1.6 | 0.00 | 0.10 | 0.00 | 97 | 1011.5 |
| 20260510063043 | 10 | 231 | 0.0 | 1.6 | 0.00 | 0.10 | 0.00 | 97 | 1011.5 |
| 20260510061552 | 10 | 0 | 0.0 | 0.0 | 0.00 | 0.10 | 0.00 | 97 | 1011.6 |
| 20260510060050 | 10 | 0 | 0.0 | 1.6 | 0.00 | 0.10 | 0.00 | 96 | 1011.7 |
| 20260510054548 | 10 | 0 | 0.0 | 0.0 | 0.00 | 0.10 | 0.00 | 97 | 1011.6 |
| 20260510053049 | 9 | 0 | 0.0 | 0.0 | 0.00 | 0.10 | 0.00 | 97 | 1011.5 |
| 20260510051551 | 9 | 0 | 0.0 | 3.2 | 0.00 | 0.10 | 0.00 | 97 | 1011.3 |
| 20260510050050 | 9 | 0 | 0.0 | 0.0 | 0.00 | 0.10 | 0.00 | 96 | 1011.2 |
| 20260510044543 | 8 | 0 | 0.0 | 0.0 | 0.00 | 0.13 | 0.00 | 96 | 1011.4 |
| 20260510043048 | 8 | 0 | 0.0 | 0.0 | 0.00 | 0.13 | 0.00 | 96 | 1011.4 |
| 20260510041545 | 8 | 0 | 0.0 | 1.6 | 0.00 | 0.13 | 0.00 | 96 | 1011.5 |
| 20260510040048 | 8 | 0 | 0.0 | 0.0 | 0.00 | 0.13 | 0.00 | 96 | 1011.5 |
| 20260510034609 | 8 | 0 | 0.0 | 0.0 | 0.00 | 0.13 | 0.13 | 96 | 1011.4 |
| 20260510033057 | 8 | 0 | 0.0 | 0.0 | 0.00 | 0.13 | 0.13 | 95 | 1011.3 |
| 20260510031546 | 8 | 0 | 0.0 | 0.0 | 0.00 | 0.13 | 0.13 | 96 | 1011.2 |
| 20260510030050 | 8 | 0 | 0.0 | 0.0 | 0.00 | 0.13 | 0.13 | 95 | 1011.3 |
| 20260510024548 | 9 | 0 | 0.0 | 0.0 | 0.00 | 0.13 | 0.13 | 95 | 1011.1 |
| 20260510023041 | 9 | 0 | 0.0 | 0.0 | 0.00 | 0.13 | 0.13 | 96 | 1011.2 |
| 20260510021558 | 10 | 0 | 0.0 | 0.0 | 0.00 | 0.13 | 0.13 | 95 | 1011.2 |
| 20260510020040 | 10 | 0 | 0.0 | 1.6 | 0.00 | 0.13 | 0.13 | 95 | 1011.1 |
| 20260510014551 | 10 | 0 | 0.0 | 1.6 | 0.00 | 0.13 | 0.13 | 95 | 1011.1 |
| 20260510013044 | 10 | 0 | 0.0 | 1.6 | 0.00 | 0.13 | 0.13 | 95 | 1011.0 |
| 20260510011549 | 10 | 0 | 0.0 | 1.6 | 0.00 | 0.13 | 0.13 | 95 | 1011.0 |
| 20260510010045 | 10 | 0 | 0.0 | 1.6 | 0.00 | 0.13 | 0.13 | 95 | 1010.8 |
| 20260510004549 | 10 | 0 | 0.0 | 1.6 | 0.00 | 0.13 | 0.13 | 94 | 1010.7 |
| 20260510003103 | 11 | 0 | 0.0 | 1.6 | 0.00 | 0.13 | 0.13 | 93 | 1010.4 |
| 20260510001551 | 11 | 258 | 0.0 | 1.6 | 0.00 | 0.13 | 0.13 | 92 | 1010.1 |
| 20260509234552 | 12 | 0 | 0.0 | 0.0 | 0.00 | 0.13 | 0.13 | 89 | 1010.2 |
| 20260509233050 | 13 | 0 | 0.0 | 0.0 | 0.00 | 0.13 | 0.13 | 88 | 1010.0 |
| 20260509231550 | 13 | 0 | 0.0 | 1.6 | 0.00 | 0.13 | 0.13 | 88 | 1009.8 |
| 20260509230044 | 13 | 0 | 0.0 | 1.6 | 0.00 | 0.13 | 0.13 | 87 | 1009.8 |
| 20260509224548 | 13 | 0 | 0.0 | 1.6 | 0.00 | 0.13 | 0.13 | 86 | 1010.0 |
| 20260509223049 | 14 | 0 | 0.0 | 1.6 | 0.00 | 0.13 | 0.13 | 84 | 1010.0 |
| 20260509221553 | 15 | 305 | 0.0 | 3.2 | 0.00 | 0.13 | 0.13 | 84 | 1009.9 |
| 20260509220048 | 15 | 222 | 0.0 | 3.2 | 0.00 | 0.13 | 0.13 | 85 | 1010.0 |
| 20260509214553 | 14 | 256 | 1.6 | 4.8 | 0.00 | 0.13 | 0.13 | 85 | 1010.0 |
| 20260509213050 | 13 | 219 | 1.6 | 3.2 | 0.00 | 0.13 | 0.13 | 90 | 1010.1 |
| 20260509211550 | 13 | 0 | 0.0 | 1.6 | 0.00 | 0.13 | 0.13 | 90 | 1010.3 |
| 20260509210048 | 13 | 0 | 0.0 | 3.2 | 0.00 | 0.13 | 0.13 | 91 | 1010.5 |
| 20260509204550 | 13 | 254 | 0.0 | 1.6 | 0.00 | 0.13 | 0.13 | 91 | 1010.4 |
| 20260509203042 | 12 | 221 | 0.0 | 4.8 | 0.00 | 0.13 | 0.13 | 92 | 1010.5 |
| 20260509201540 | 12 | 0 | 0.0 | 4.8 | 0.00 | 0.13 | 0.13 | 93 | 1010.5 |
| 20260509200056 | 12 | 0 | 0.0 | 3.2 | 0.00 | 0.13 | 0.13 | 93 | 1010.6 |
| 20260509194554 | 11 | 0 | 0.0 | 0.0 | 0.00 | 0.13 | 0.13 | 93 | 1011.0 |
| 20260509193042 | 11 | 307 | 0.0 | 1.6 | 0.00 | 0.13 | 0.13 | 92 | 1011.5 |
| 20260509191548 | 12 | 300 | 0.0 | 1.6 | 0.00 | 0.13 | 0.13 | 92 | 1011.6 |
| 20260509190048 | 12 | 0 | 0.0 | 3.2 | 0.00 | 0.13 | 0.13 | 92 | 1011.7 |
| 20260509184551 | 12 | 0 | 0.0 | 1.6 | 0.00 | 0.13 | 0.13 | 92 | 1011.7 |
| 20260509183059 | 12 | 309 | 0.0 | 1.6 | 0.03 | 0.13 | 0.13 | 91 | 1011.8 |
| 20260509181544 | 12 | 0 | 0.0 | 1.6 | 0.03 | 0.13 | 0.13 | 92 | 1011.7 |
| 20260509180041 | 12 | 0 | 0.0 | 1.6 | 0.03 | 0.13 | 0.13 | 92 | 1011.7 |
| 20260509174548 | 12 | 0 | 0.0 | 3.2 | 0.05 | 0.13 | 0.13 | 91 | 1011.6 |
| 20260509173046 | 12 | 300 | 0.0 | 1.6 | 0.05 | 0.10 | 0.10 | 90 | 1011.9 |
| 20260509171546 | 13 | 320 | 0.0 | 1.6 | 0.05 | 0.10 | 0.10 | 91 | 1011.8 |
| 20260509170044 | 13 | 303 | 0.0 | 3.2 | 0.05 | 0.10 | 0.10 | 90 | 1011.8 |
| 20260509164550 | 13 | 306 | 0.0 | 4.8 | 0.03 | 0.08 | 0.08 | 89 | 1011.7 |
| 20260509163050 | 13 | 0 | 0.0 | 3.2 | 0.00 | 0.05 | 0.05 | 89 | 1011.7 |
| 20260509161547 | 12 | 0 | 1.6 | 6.4 | 0.00 | 0.05 | 0.05 | 88 | 1011.9 |
| 20260509160047 | 12 | 321 | 0.0 | 1.6 | 0.00 | 0.05 | 0.05 | 88 | 1011.8 |
| 20260509154549 | 12 | 316 | 0.0 | 3.2 | 0.00 | 0.05 | 0.05 | 87 | 1012.0 |